Weather History for KINK - March, 2012

Change the Weather History Date:

Saturday, March 10, 2012

  Actual Average Record
Temperature  
Mean Temperature 40 °F -  
Max Temperature 44 °F 72 °F 90 °F (1954)
Min Temperature 35 °F 39 °F 24 °F (1998)
Degree Days  
Heating Degree Days 26    
Moisture  
Dew Point 36 °F    
Average Humidity 87    
Maximum Humidity 100    
Minimum Humidity 73    
Precipitation  
Precipitation 0.00 in - - ()
Sea Level Pressure  
Sea Level Pressure 30.18 in    
Wind  
Wind Speed 4 mph (NE)    
Max Wind Speed 9 mph    
Max Gust Speed -    
Visibility 9 miles    
Events Rain    
Averages and records for this station are not official NWS values.
T = Trace of Precipitation, MM = Missing Value Source: NWS Daily Summary

Daily Weather History Graph

Daily Weather History Graph

Search for Another Location

Airport or City:

Trip Planner

Search our weather history database for the weather conditions in past years. The results will help you decide how hot, cold, wet, or windy it might be!

Date:

Astronomy

Mar. 10, 2012 Rise Set
Actual Time 7:08 AM CST 6:57 PM CST
Civil Twilight 6:44 AM CST 7:22 PM CST
Nautical Twilight 6:15 AM CST 7:50 PM CST
Astronomical Twilight 5:47 AM CST 8:18 PM CST
Moon 9:56 PM CST (3/10) 8:19 AM CST (3/10)
Length of Visible Light 12h 37m
Length of Day
11h 49m
Waning Gibbous, 92% of the Moon is Illuminated
Mar 10
Waning Gibbous
Mar 14
Last Quarter
Mar 22
New
Mar 30
First Quarter
Apr 6
Full

Hourly Weather History & Observations

Time (CST) Temp. Windchill Dew Point Humidity Pressure Visibility Wind Dir Wind Speed Gust Speed Precip Events Conditions
12:18 AM 37.4 °F 31.4 °F 33.8 °F 87% 30.33 in 5.0 mi NNE 8.1 mph - N/A   Overcast
12:53 AM 36.0 °F 32.1 °F 36.0 °F 100% 30.32 in 5.0 mi North 4.6 mph - N/A   Overcast
1:00 AM 35.6 °F 31.7 °F 35.6 °F 100% 30.31 in 5.0 mi North 4.6 mph - 0.00 in Rain Light Rain
1:53 AM 36.0 °F - 35.1 °F 97% 30.30 in 3.0 mi Calm Calm - 0.00 in   Overcast
2:53 AM 37.0 °F 34.5 °F 36.0 °F 96% 30.26 in 4.0 mi NNW 3.5 mph - N/A   Overcast
3:04 AM 37.4 °F - 35.6 °F 93% 30.26 in 7.0 mi Calm Calm - N/A   Overcast
3:51 AM 37.4 °F - 35.6 °F 93% 30.23 in 8.0 mi Calm Calm - N/A   Overcast
3:53 AM 37.0 °F 34.5 °F 36.0 °F 96% 30.23 in 8.0 mi North 3.5 mph - N/A   Overcast
4:04 AM 37.4 °F - 35.6 °F 93% 30.23 in 10.0 mi Calm Calm - N/A   Overcast
4:11 AM 37.4 °F - 35.6 °F 93% 30.23 in 10.0 mi Calm Calm - N/A   Overcast
4:53 AM 37.0 °F 34.5 °F 36.0 °F 96% 30.22 in 10.0 mi NNE 3.5 mph - N/A   Overcast
5:24 AM 37.4 °F 34.9 °F 35.6 °F 93% 30.22 in 7.0 mi NE 3.5 mph - N/A   Overcast
5:53 AM 37.0 °F 34.5 °F 35.1 °F 93% 30.21 in 9.0 mi NE 3.5 mph - N/A   Overcast
6:53 AM 37.0 °F 34.5 °F 36.0 °F 96% 30.21 in 10.0 mi ENE 3.5 mph - N/A   Overcast
7:02 AM 37.4 °F 34.9 °F 35.6 °F 93% 30.22 in 10.0 mi East 3.5 mph - N/A   Overcast
7:53 AM 37.9 °F 34.4 °F 35.1 °F 89% 30.22 in 10.0 mi East 4.6 mph - N/A   Overcast
8:12 AM 37.4 °F 34.9 °F 35.6 °F 93% 30.22 in 5.0 mi East 3.5 mph - N/A   Overcast
8:53 AM 37.9 °F 35.5 °F 36.0 °F 93% 30.21 in 10.0 mi NE 3.5 mph - N/A   Overcast
9:05 AM 39.2 °F 37.0 °F 35.6 °F 87% 30.21 in 10.0 mi ENE 3.5 mph - N/A   Overcast
9:53 AM 39.9 °F 34.5 °F 36.0 °F 86% 30.19 in 10.0 mi NE 8.1 mph - N/A   Overcast
10:53 AM 39.9 °F 33.9 °F 36.0 °F 86% 30.18 in 10.0 mi East 9.2 mph - N/A   Overcast
11:53 AM 41.0 °F 37.1 °F 36.0 °F 82% 30.17 in 10.0 mi SE 5.8 mph - N/A   Overcast
12:53 PM 41.0 °F - 36.0 °F 82% 30.14 in 10.0 mi Calm Calm - N/A   Overcast
1:53 PM 42.1 °F 39.2 °F 36.0 °F 79% 30.10 in 10.0 mi NE 4.6 mph - N/A   Overcast
2:53 PM 42.1 °F 40.2 °F 36.0 °F 79% 30.06 in 10.0 mi NE 3.5 mph - N/A   Overcast
3:53 PM 43.0 °F - 36.0 °F 76% 30.05 in 10.0 mi Calm Calm - N/A   Overcast
4:53 PM 44.1 °F 42.5 °F 36.0 °F 73% 30.03 in 10.0 mi Variable 3.5 mph - N/A   Overcast
5:53 PM 43.0 °F 39.5 °F 36.0 °F 76% 30.04 in 10.0 mi North 5.8 mph - N/A   Overcast
6:53 PM 44.1 °F 41.5 °F 36.0 °F 73% 30.05 in 10.0 mi North 4.6 mph - N/A   Overcast
7:53 PM 43.0 °F 40.3 °F 36.0 °F 76% 30.06 in 10.0 mi NNE 4.6 mph - N/A   Overcast
8:53 PM 43.0 °F 41.3 °F 36.0 °F 76% 30.07 in 10.0 mi North 3.5 mph - N/A   Overcast
9:53 PM 44.1 °F - 37.0 °F 76% 30.09 in 10.0 mi Calm Calm - N/A   Overcast
10:53 PM 43.0 °F - 37.0 °F 80% 30.08 in 10.0 mi Calm Calm - N/A   Overcast
11:53 PM 43.0 °F - 36.0 °F 76% 30.08 in 10.0 mi Calm Calm - N/A   Overcast